La Grande, OR

10:11 AM PST on December 05, 2019 (GMT -0800)
La Grande-Union County

Weather History for KLGD - September, 2019

Change the Weather History Date:

Sunday, September 29, 2019

  Actual Average Record
Temperature  
Mean Temperature 40 °F -  
Max Temperature 46 °F 69 °F 87 °F (2016)
Min Temperature 33 °F 36 °F 23 °F (1985)
Degree Days  
Heating Degree Days 26    
Moisture  
Dew Point 29 °F    
Average Humidity 69    
Maximum Humidity 82    
Minimum Humidity 50    
Precipitation  
Precipitation 0.00 in - - ()
Sea Level Pressure  
Sea Level Pressure 29.88 in    
Wind  
Wind Speed 10 mph (NW)    
Max Wind Speed 15 mph    
Max Gust Speed 16 mph    
Visibility 10 miles    
Events      
Averages and records for this station are not official NWS values.
T = Trace of Precipitation, MM = Missing Value Source: NWS Daily Summary

Daily Weather History Graph

Daily Weather History Graph

Search for Another Location

Airport or City:

Astronomy

Sep. 29, 2019 Rise Set
Actual Time 6:47 AM PDT 6:36 PM PDT
Civil Twilight 6:18 AM PDT 7:05 PM PDT
Nautical Twilight 5:43 AM PDT 7:39 PM PDT
Astronomical Twilight 5:08 AM PDT 8:14 PM PDT
Moon 7:44 AM PDT (9/29) 7:37 PM PDT (9/29)
Length of Visible Light 12h 47m
Length of Day
11h 48m
New Moon, 2% of the Moon is Illuminated
Sep 29
New Moon
Oct 5
First Quarter
Oct 13
Full
Oct 21
Last Quarter
Oct 27
New

Hourly Weather History & Observations

Time (PDT) Temp. Windchill Dew Point Humidity Pressure Visibility Wind Dir Wind Speed Gust Speed Precip Events Conditions
12:56 AM 36.0 °F 26.7 °F 30.0 °F 79% 29.82 in 10.0 mi WNW 15.0 mph - N/A   Scattered Clouds
1:22 AM 35.6 °F 27.5 °F 30.2 °F 81% 29.79 in 10.0 mi WNW 11.5 mph - N/A   Mostly Cloudy
1:31 AM 35.6 °F 28.0 °F 30.2 °F 81% 29.79 in 10.0 mi WNW 10.4 mph - N/A   Overcast
1:56 AM 37.0 °F 29.8 °F 30.0 °F 76% 29.82 in 10.0 mi NW 10.4 mph - N/A   Overcast
2:56 AM 36.0 °F 29.0 °F 30.0 °F 79% 29.83 in 10.0 mi NW 9.2 mph - N/A   Overcast
3:56 AM 36.0 °F 30.3 °F 28.9 °F 76% 29.83 in 10.0 mi WNW 6.9 mph - N/A   Overcast
4:56 AM 34.0 °F 27.2 °F 28.9 °F 82% 29.82 in 10.0 mi WNW 8.1 mph - N/A   Scattered Clouds
5:56 AM 35.1 °F 27.4 °F 28.9 °F 78% 29.83 in 10.0 mi West 10.4 mph - N/A   Overcast
7:56 AM 37.0 °F 30.4 °F 30.0 °F 76% 29.86 in 10.0 mi WNW 9.2 mph - N/A   Overcast
8:13 AM 37.4 °F 29.3 °F 30.2 °F 75% 29.82 in 10.0 mi WNW 12.7 mph - N/A   Overcast
8:35 AM 37.4 °F 30.8 °F 30.2 °F 75% 29.83 in 10.0 mi NW 9.2 mph - N/A   Overcast
8:56 AM 39.0 °F 31.8 °F 30.0 °F 70% 29.87 in 10.0 mi WNW 11.5 mph - N/A   Overcast
9:07 AM 39.2 °F 32.0 °F 28.4 °F 65% 29.83 in 10.0 mi WNW 11.5 mph - N/A   Overcast
9:56 AM 39.0 °F 33.4 °F 28.9 °F 67% 29.88 in 10.0 mi NW 8.1 mph - N/A   Mostly Cloudy
10:12 AM 42.8 °F 37.0 °F 28.4 °F 57% 29.84 in 10.0 mi WNW 10.4 mph - N/A   Mostly Cloudy
10:56 AM 42.1 °F 37.1 °F 28.9 °F 60% 29.87 in 10.0 mi WNW 8.1 mph - N/A   Overcast
11:56 AM 43.0 °F 37.2 °F 28.0 °F 56% 29.88 in 10.0 mi West 10.4 mph 16.1 mph N/A   Overcast
12:56 PM 46.0 °F 42.5 °F 28.0 °F 50% 29.88 in 10.0 mi North 6.9 mph - N/A   Overcast
1:56 PM 45.0 °F 41.8 °F 28.0 °F 52% 29.88 in 10.0 mi Variable 5.8 mph - N/A   Overcast
2:56 PM 45.0 °F 40.1 °F 28.0 °F 52% 29.88 in 10.0 mi NW 9.2 mph - N/A   Overcast
3:56 PM 45.0 °F 41.2 °F 28.0 °F 52% 29.90 in 10.0 mi NW 6.9 mph - N/A   Mostly Cloudy
4:56 PM 45.0 °F 40.6 °F 28.0 °F 52% 29.91 in 10.0 mi WNW 8.1 mph - N/A   Mostly Cloudy
5:56 PM 43.0 °F 37.2 °F 28.9 °F 58% 29.93 in 10.0 mi NW 10.4 mph - N/A   Mostly Cloudy
6:56 PM 41.0 °F 36.4 °F 30.0 °F 65% 29.95 in 10.0 mi NW 6.9 mph - N/A   Partly Cloudy
7:56 PM 37.9 °F 31.5 °F 30.0 °F 73% 29.98 in 10.0 mi NNW 9.2 mph - N/A   Mostly Cloudy
8:56 PM 37.9 °F 34.4 °F 30.0 °F 73% 29.99 in 10.0 mi NW 4.6 mph - N/A   Partly Cloudy
9:56 PM 34.0 °F 28.8 °F 28.9 °F 82% 29.99 in 10.0 mi North 5.8 mph - N/A   Clear
10:32 PM 33.8 °F 28.6 °F 28.4 °F 81% 29.94 in 10.0 mi North 5.8 mph - N/A   Mostly Cloudy
10:56 PM 37.0 °F 31.6 °F 30.0 °F 76% 29.98 in 10.0 mi NW 6.9 mph - N/A   Overcast
11:56 PM 36.0 °F 33.3 °F 30.9 °F 82% 29.98 in 10.0 mi NNW 3.5 mph - N/A   Overcast